Tracking 25193 objects as of 17-Jan-2022
HD Live streaming from Space Station
objects crossing your sky now

STARLINK-1837

Track STARLINK-1837 now!
10-day predictions
STARLINK-1837 is classified as:


NORAD ID: 47128
Int'l Code: 2020-088G
Perigee: 551.8 km
Apogee: 557.0 km
Inclination: 53.1 °
Period: 95.6 minutes
Semi major axis: 6925 km
RCS: Unknown
Launch date: November 25, 2020
Source: United States (US)
Launch site: AIR FORCE EASTERN TEST RANGE (AFETR)
aabbcc
Your satellite tracking list
Your tracking list is empty




NASA's NSSDC Master Catalog

Two Line Element Set (TLE):
1 47128U 20088G   22017.28710987  .00000596  00000-0  58948-4 0  9992
2 47128  53.0557 231.0555 0003741  56.3724 303.7621 15.06394753 64164
Source of the keplerian elements: AFSPC